www.pogodaiklimat.ru
ПОГОДА в Бозе

Архив погоды в Бозе (Андижанская область, Узбекистан)

Время
и дата
23:00 27.05
23:10 27.05
23:20 27.05
23:30 27.05
23:40 27.05
00:00 28.05
00:10 28.05
00:20 28.05
00:30 28.05
00:40 28.05
01:00 28.05
01:20 28.05
01:40 28.05
01:50 28.05
02:00 28.05
02:20 28.05
02:30 28.05
02:40 28.05
02:50 28.05
03:00 28.05
03:20 28.05
03:40 28.05
04:00 28.05
04:10 28.05
04:20 28.05
04:40 28.05
05:00 28.05
05:30 28.05
06:00 28.05
06:10 28.05
06:20 28.05
06:40 28.05
06:50 28.05
07:00 28.05
07:20 28.05
07:30 28.05
07:40 28.05
07:50 28.05
08:00 28.05
08:20 28.05
08:30 28.05
08:50 28.05
09:00 28.05
09:20 28.05
09:30 28.05
09:50 28.05
10:10 28.05
10:20 28.05
10:30 28.05
10:50 28.05
11:00 28.05
11:10 28.05
11:30 28.05
11:40 28.05
11:50 28.05
12:00 28.05
12:20 28.05
12:30 28.05
12:40 28.05
13:00 28.05
13:20 28.05
13:30 28.05
13:40 28.05
13:50 28.05
14:10 28.05
14:20 28.05
14:30 28.05
14:40 28.05
14:50 28.05
15:10 28.05
15:20 28.05
15:30 28.05
15:40 28.05
15:50 28.05
16:00 28.05
16:10 28.05
16:20 28.05
16:30 28.05
16:40 28.05
16:50 28.05
17:10 28.05
17:30 28.05
17:40 28.05
18:00 28.05
18:10 28.05
18:20 28.05
18:40 28.05
18:50 28.05
19:00 28.05
19:20 28.05
19:30 28.05
19:50 28.05
20:10 28.05
20:30 28.05
20:40 28.05
20:50 28.05
21:00 28.05
21:20 28.05
21:40 28.05
21:50 28.05
22:10 28.05
22:20 28.05
22:30 28.05
22:50 28.05
23:00 28.05
23:20 28.05
23:30 28.05
23:50 28.05
00:00 29.05
00:10 29.05
00:30 29.05
00:40 29.05
01:10 29.05
01:20 29.05
01:40 29.05
02:00 29.05
02:10 29.05
02:20 29.05
02:30 29.05
02:40 29.05
03:00 29.05
03:10 29.05
03:30 29.05
03:40 29.05
03:50 29.05
04:00 29.05
04:10 29.05
04:20 29.05
04:40 29.05
04:50 29.05
05:10 29.05
05:20 29.05
05:40 29.05
05:50 29.05
06:00 29.05
06:10 29.05
06:20 29.05
06:40 29.05
06:50 29.05
07:00 29.05
07:20 29.05
07:40 29.05
07:50 29.05
08:10 29.05
Ветер
(напр.,м/с)
Видимость Явления Солнечная радиация
(Вт/м2)
Т
(С)
Тd
(С)
f
(%)
Тe
(С)
Тes
(С)
Комфортность P
(гПа)
Po
(гПа)
Тmin
(С)
Tmax
(С)
R
(мм)
ЮВ 0.5
{0.9}
+17.7 +11.0 65 +19 +19 1014.3 963.2 +17.7 +17.3
В 0.4
{0.6}
+17.4 +11.5 68 +19 +19 1014.3 963.2 +17.7 +17.4
С 0.3
{0.4}
+17.2 +12.1 72 +19 +19 1014.2 963.1 +17.4 +17.2
С 0.4
{0.6}
+17.0 +11.9 72 +19 +19 1014.1 963.0 +17.2 +17.0
В 0.3
{0.6}
+16.9 +11.8 72 +19 +19 1014.1 963.0 +17.0 +16.9
ЮВ 0.5
{1.1}
+16.9 +12.1 73 +18 +18 1014.2 963.1 +17.2 +16.9
СВ 0.7
{1.3}
+16.9 +12.3 74 +18 +18 1014.2 963.1 +16.9 +16.8
СВ 0.7
{1.1}
+17.0 +11.5 70 +18 +18 1014.2 963.1 +17.0 +16.9
СВ 0.8
{1.2}
+17.1 +11.3 68 +18 +18 1014.1 963.0 +17.1 +17.0
СВ 0.4
{1.0}
+16.9 +12.1 73 +19 +19 1014.1 963.0 +17.2 +16.9
ЮВ 0.7
{1.6}
+17.4 +11.3 67 +19 +19 1014.0 962.9 +17.5 +17.3
СВ 0.5
{0.9}
+16.7 +12.2 75 +18 +18 1014.0 962.9 +17.0 +16.7
В 0.3
{0.9}
+16.3 +13.5 83 +18 +18 1013.9 962.8 +16.5 +16.3
ЮВ 0.7
{1.1}
+16.5 +13.1 80 +18 +18 1013.9 962.8 +16.5 +16.1
Ю 0.3
{0.7}
+16.2 +13.5 84 +18 +18 1013.9 962.8 +16.5 +16.1
Ю 0.4
{0.8}
+16.2 +13.9 86 +18 +18 1014.0 962.9 +16.2 +15.9
ЮВ 0.2
{0.7}
+15.8 +14.6 92 +18 +18 1013.8 962.7 +16.2 +15.8
СВ 0.3
{0.6}
+15.6 +15.1 97 +17 +17 1013.6 962.6 +15.8 +15.6
ЮВ 0.5
{1.0}
+16.0 +14.5 91 +17 +17 1013.8 962.7 +16.0 +15.6
З 0.5
{1.0}
+15.9 +15.2 96 +17 +17 1013.8 962.7 +16.0 +15.9
С 0.4
{0.6}
+15.3 +15.3 100 +17 +17 1013.8 962.7 +15.6 +15.3
С 0.8
{1.2}
+14.8 +14.8 100 +15 +15 1013.9 962.8 +15.0 +14.8
С 0.9
{1.5}
+14.9 +14.9 100 +15 +15 1014.1 963.0 +14.9 +14.8
СВ 0.5
{1.3}
+14.8 +14.8 100 +16 +16 1014.1 963.0 +14.9 +14.8
С 0.8
{1.2}
+14.7 +14.7 100 +15 +15 1014.1 963.0 +14.8 +14.7
С 0.9
{2.0}
+14.5 +14.5 100 +15 +15 1014.2 963.1 +14.5 +14.4
СВ 0.8
{1.5}
+14.4 +14.4 100 +15 +15 1014.2 963.1 +14.5 +14.4
С 0.6
{1.0}
+14.8 +14.8 100 +16 +16 1014.5 963.4 +14.8 +14.7
СВ 0.5
{1.2}
+16.4 +15.6 95 +18 +18 1014.7 963.6 +16.4 +15.9
СВ 0.5
{1.3}
+17.6 +15.4 87 +19 +19 1014.7 963.6 +17.6 +16.4
СВ 1.0
{2.1}
+17.9 +15.3 85 +19 +19 1014.7 963.6 +17.9 +17.6
СВ 0.7
{2.0}
+19.2 +14.9 76 +22 +22 комфорт 1014.7 963.6 +19.2 +18.2
В 0.8
{1.5}
+19.8 +15.1 74 +23 +23 комфорт 1014.8 963.7 +19.8 +19.2
В 0.9
{1.8}
+20.3 +15.0 72 +24 +24 комфорт 1014.7 963.6 +20.3 +19.8
СВ 0.8
{1.6}
+20.9 +14.3 66 +25 +25 комфорт 1014.8 963.7 +20.9 +20.3
В 0.8
{1.7}
+21.4 +14.7 65 +24 +24 комфорт 1014.7 963.6 +21.4 +20.8
Ю 0.5
{1.6}
+21.4 +15.8 70 +25 +25 комфорт 1014.8 963.7 +21.6 +21.3
С 0.5
{1.1}
+22.0 +14.9 64 +25 +25 комфорт 1014.9 963.8 +22.0 +21.4
С 0.5
{1.4}
+22.3 +14.7 62 +26 +26 жарко 1014.9 963.8 +22.5 +22.0
СВ 0.7
{1.4}
+22.7 +14.9 61 +26 +26 жарко 1014.9 963.8 +22.6 +22.0
С 0.7
{1.7}
+23.3 +14.4 57 +27 +27 душно 1014.8 963.7 +23.4 +22.7
СЗ 0.8
{1.6}
+24.0 +13.5 52 +26 +26 жарко 1014.7 963.6 +24.0 +23.7
СЗ 1.0
{1.9}
+24.2 +11.2 44 +26 +26 жарко 1014.7 963.6 +24.2 +23.9
С 1.1
{2.2}
+24.9 +12.4 46 +27 +27 жарко 1014.6 963.5 +25.0 +24.8
С 1.4
{2.9}
+25.5 +11.0 40 +27 +27 жарко 1014.5 963.4 +25.5 +24.9
СЗ 1.3
{3.0}
+26.1 +13.0 44 +28 +28 жарко 1014.4 963.3 +26.2 +25.7
СЗ 1.0
{2.5}
+25.8 +12.7 44 +28 +28 жарко 1014.4 963.3 +25.8 +25.6
СЗ 1.2
{2.7}
+26.6 +14.3 47 +29 +29 жарко 1014.4 963.3 +26.6 +25.8
С 1.1
{2.2}
+26.9 +11.6 38 +28 +28 жарко 1014.4 963.3 +27.0 +26.6
ЮЗ 0.6
{1.6}
+27.0 +13.0 42 +29 +29 жарко 1014.3 963.2 +26.9 +26.7
СВ 1.0
{2.5}
+27.3 +12.7 40 +29 +29 жарко 1014.2 963.1 +27.3 +26.9
В 1.5
{2.9}
+27.5 +12.3 39 +29 +29 жарко 1014.1 963.0 +27.5 +27.2
СВ 1.7
{3.0}
+27.9 +12.5 38 +29 +29 жарко 1013.8 962.8 +28.1 +27.7
ЮВ 1.4
{3.6}
+28.1 +11.4 35 +29 +29 жарко 1013.7 962.7 +28.1 +27.9
СЗ 1.2
{3.7}
+28.8 +9.5 30 +29 +29 жарко 1013.6 962.6 +28.8 +28.1
ЮЗ 1.4
{3.5}
+28.9 +9.0 29 +29 +29 жарко 1013.4 962.4 +29.0 +28.7
З 1.1
{2.9}
+29.2 +9.5 29 +29 +29 жарко 1013.2 962.2 +29.3 +29.1
ЮЗ 1.0
{2.3}
+29.3 +9.8 30 +29 +29 жарко 1013.1 962.1 +29.4 +29.2
ЮЗ 1.3
{3.2}
+29.4 +9.8 30 +29 +29 жарко 1013.0 962.0 +29.4 +29.1
Ю 1.5
{3.0}
+30.0 +10.0 29 +30 +30 жарко 1012.9 961.9 +30.0 +29.2
ЮЗ 1.5
{3.5}
+30.0 +9.6 28 +30 +30 жарко 1012.8 961.8 +30.5 +30.0
З 1.6
{4.7}
+30.1 +10.7 30 +30 +30 жарко 1012.8 961.8 +30.3 +30.0
З 1.5
{3.6}
+30.4 +8.8 26 +30 +30 жарко 1012.8 961.8 +30.4 +30.1
ЮЗ 1.5
{3.7}
+30.5 +8.6 26 +30 +30 жарко 1012.7 961.7 +30.8 +30.4
ЮЗ 1.8
{4.3}
+30.3 +8.1 25 +29 +29 жарко 1012.5 961.5 +30.9 +30.3
ЮЗ 1.2
{3.0}
+30.6 +10.3 28 +30 +30 жарко 1012.4 961.4 +30.6 +30.2
ЮЗ 1.4
{4.2}
+30.8 +9.7 27 +30 +30 жарко 1012.4 961.4 +30.8 +30.6
З 1.6
{4.3}
+31.0 +9.9 27 +31 +31 жарко 1012.3 961.3 +31.2 +30.8
З 2.1
{4.4}
+30.8 +9.9 27 +30 +30 жарко 1012.3 961.3 +31.0 +30.6
ЮЗ 1.5
{3.6}
+30.9 +10.2 28 +31 +31 жарко 1012.1 961.1 +31.1 +30.7
ЮЗ 1.7
{4.4}
+30.9 +9.8 27 +30 +30 жарко 1012.0 961.0 +31.0 +30.8
ЮЗ 1.7
{3.5}
+30.5 +11.7 31 +31 +31 жарко 1012.0 961.0 +30.9 +30.4
ЮЗ 1.2
{3.7}
+30.6 +10.2 28 +30 +30 жарко 1012.0 961.0 +30.7 +30.5
ЮЗ 1.2
{3.7}
+30.8 +9.9 27 +30 +30 жарко 1012.0 961.0 +31.0 +30.6
ЮЗ 1.5
{3.5}
+30.6 +8.1 25 +30 +30 жарко 1012.0 961.0 +30.8 +30.4
ЮЗ 1.6
{4.3}
+31.1 +10.2 28 +31 +31 жарко 1011.9 960.9 +31.1 +30.5
ЮЗ 2.0
{4.8}
+30.7 +9.0 26 +30 +30 жарко 1011.9 960.9 +31.2 +30.7
ЮЗ 1.6
{3.9}
+31.1 +9.1 26 +30 +30 жарко 1011.9 960.9 +31.1 +30.7
ЮЗ 1.5
{3.9}
+30.8 +8.4 25 +30 +30 жарко 1011.9 960.9 +31.2 +30.9
ЮЗ 1.7
{3.9}
+30.7 +9.7 27 +30 +30 жарко 1011.9 960.9 +30.9 +30.7
ЮЗ 1.5
{3.5}
+30.9 +9.6 27 +30 +30 жарко 1011.8 960.8 +30.9 +30.7
ЮЗ 1.4
{4.3}
+30.3 +10.0 28 +30 +30 жарко 1012.0 961.0 +30.7 +30.3
ЮЗ 1.2
{3.7}
+29.3 +9.3 29 +29 +29 жарко 1012.1 961.1 +30.3 +29.3
З 3.0
{7.1}
+27.9 +8.4 29 +28 +28 жарко 1012.3 961.3 +28.7 +27.9
З 2.2
{5.9}
+27.5 +7.9 29 +27 +27 жарко 1012.3 961.3 +27.9 +27.5
ЮЗ 1.7
{4.7}
+27.8 +7.3 27 +27 +27 жарко 1012.4 961.4 +27.8 +27.4
ЮЗ 2.5
{5.9}
+27.0 +8.3 31 +27 +27 жарко 1012.3 961.3 +27.7 +27.0
ЮЗ 1.8
{4.8}
+26.3 +7.4 30 +26 +26 жарко 1012.4 961.4 +27.0 +26.3
ЮЗ 1.2
{3.8}
+26.1 +6.4 28 +26 +26 жарко 1012.6 961.6 +26.3 +26.2
Ю 2.2
{4.6}
+25.7 +6.4 29 +25 +25 комфорт 1012.9 961.9 +25.9 +25.7
Ю 2.5
{5.2}
+25.4 +8.3 34 +26 +26 жарко 1013.0 962.0 +25.7 +25.4
ЮЗ 2.8
{6.3}
+25.3 +6.9 31 +25 +25 комфорт 1013.1 962.1 +25.6 +25.3
ЮЗ 3.0
{6.2}
+25.2 +6.0 29 +25 +25 комфорт 1013.2 962.2 +25.3 +25.2
ЮЗ 2.3
{5.9}
+25.0 +5.0 27 +24 +24 комфорт 1013.2 962.2 +25.3 +25.0
ЮЗ 1.8
{8.1}
+24.9 +4.6 27 +24 +24 комфорт 1013.3 962.3 +25.0 +24.8
ЮЗ 1.6
{6.5}
+24.7 +4.8 28 +24 +24 комфорт 1013.4 962.4 +24.9 +24.7
ЮЗ 1.4
{4.9}
+24.4 +4.4 27 +24 +24 комфорт 1013.5 962.5 +24.7 +24.4
ЮЗ 1.6
{4.6}
+24.0 +4.3 28 +24 +24 комфорт 1013.6 962.6 +24.0 +23.9
З 1.0
{3.5}
+23.3 +4.0 29 +23 +23 комфорт 1013.9 962.8 +23.8 +23.3
З 1.4
{4.2}
+23.1 +4.1 29 +23 +23 комфорт 1013.9 962.8 +23.3 +23.1
ЮЗ 1.2
{4.6}
+22.9 +4.2 29 +23 +23 комфорт 1013.9 962.8 +23.0 +22.9
Ю 1.3
{2.8}
+22.7 +4.3 30 +23 +23 комфорт 1013.9 962.8 +22.9 +22.7
Ю 1.6
{3.5}
+22.4 +4.5 31 +23 +23 комфорт 1014.0 962.9 +22.7 +22.4
ЮЗ 0.9
{2.5}
+21.9 +4.9 33 +22 +22 комфорт 1013.9 962.8 +22.4 +21.9
ЮЗ 1.3
{3.1}
+21.6 +4.5 33 +22 +22 комфорт 1014.0 962.9 +21.9 +21.6
Ю 0.8
{1.8}
+20.7 +4.9 35 +23 +23 комфорт 1014.0 962.9 +21.3 +20.8
Ю 1.0
{2.3}
+20.5 +4.3 35 +22 +22 комфорт 1014.0 962.9 +20.7 +20.3
ЮЗ 0.7
{2.2}
+19.6 +4.8 38 +21 +21 комфорт 1013.9 962.8 +20.0 +19.6
Ю 0.7
{2.7}
+19.3 +4.7 38 +21 +21 комфорт 1013.9 962.8 +19.6 +19.3
ЮЗ 0.9
{2.2}
+19.2 +4.9 39 +21 +21 комфорт 1013.9 962.8 +19.4 +19.2
Ю 0.8
{1.9}
+18.6 +4.8 40 +20 +20 1013.9 962.8 +18.9 +18.6
Ю 0.9
{2.1}
+19.3 +4.2 37 +21 +21 комфорт 1013.8 962.7 +19.3 +18.6
Ю 1.0
{2.2}
+20.1 +3.9 34 +22 +22 комфорт 1013.8 962.7 +20.1 +20.0
Ю 1.1
{2.9}
+20.0 +4.2 35 +22 +22 комфорт 1013.8 962.7 +20.1 +20.0
СВ 1.1
{3.2}
+19.5 +4.7 38 +21 +21 комфорт 1014.0 962.9 +19.8 +19.5
СВ 0.9
{2.1}
+18.7 +4.9 40 +20 +20 1014.0 962.9 +19.2 +18.7
СВ 1.0
{2.2}
+18.5 +5.2 42 +20 +20 1014.0 962.9 +18.7 +18.5
В 0.5
{1.1}
+18.0 +5.2 43 +20 +20 1013.9 962.8 +18.5 +18.0
В 0.8
{2.1}
+17.5 +5.8 46 +19 +19 1014.0 962.9 +18.0 +17.5
ЮВ 1.4
{2.5}
+17.5 +4.8 43 +18 +18 1014.0 962.9 +17.5 +17.2
ЮВ 1.5
{2.9}
+17.6 +4.7 42 +18 +18 1014.0 962.9 +17.7 +17.5
ЮВ 0.7
{1.6}
+16.7 +5.5 48 +18 +18 1014.0 962.9 +17.6 +16.7
ЮВ 0.6
{1.5}
+15.6 +5.8 52 +17 +17 1014.2 963.1 +16.0 +15.6
ЮВ 0.8
{1.4}
+15.2 +5.9 53 +16 +16 1014.3 963.2 +15.6 +15.2
ЮВ 0.9
{1.6}
+15.0 +5.8 54 +16 +16 1014.3 963.2 +15.2 +15.0
Ю 1.2
{2.2}
+15.7 +4.5 47 +16 +16 1014.4 963.3 +15.7 +15.0
ЮЗ 1.2
{2.8}
+15.8 +4.3 46 +16 +16 1014.4 963.3 +15.9 +15.7
ЮЗ 0.7
{1.7}
+15.8 +4.8 48 +17 +17 1014.5 963.4 +16.0 +15.8
Ю 0.7
{1.2}
+15.8 +5.6 50 +17 +17 1014.7 963.6 +16.0 +15.4
Ю 0.3
{1.0}
+15.2 +5.7 53 +17 +17 1014.8 963.7 +15.8 +15.2
ЮВ 0.5
{1.2}
+14.9 +6.2 56 +16 +16 1014.8 963.7 +14.9 +14.6
ЮВ 1.2
{1.9}
+15.0 +5.8 54 +15 +15 1014.9 963.8 +15.2 +14.9
ЮВ 0.5
{1.4}
+15.7 +7.1 57 +17 +17 1015.1 964.0 +15.7 +15.3
Ю 1.0
{1.8}
+16.1 +7.5 57 +17 +17 1015.2 964.1 +16.1 +15.7
Ю 0.6
{1.2}
+16.3 +8.5 60 +18 +18 1015.2 964.1 +16.3 +16.0
Ю 0.5
{1.0}
+17.4 +9.4 59 +19 +19 1015.3 964.2 +17.4 +16.3
Ю 0.8
{1.6}
+18.6 +7.5 48 +20 +20 1015.3 964.2 +18.6 +17.4
ЮЗ 0.6
{1.3}
+19.7 +8.9 50 +22 +22 комфорт 1015.3 964.2 +19.7 +19.2
Ю 0.9
{1.8}
+19.4 +10.4 56 +22 +22 комфорт 1015.4 964.3 +19.7 +19.5
ЮВ 1.2
{2.2}
+19.4 +10.9 58 +21 +21 комфорт 1015.5 964.4 +19.5 +19.3
Ю 1.6
{2.7}
+20.5 +8.8 47 +23 +23 комфорт 1015.5 964.4 +20.5 +19.7
Ю 1.3
{2.9}
+21.6 +9.2 45 +23 +23 комфорт 1015.5 964.4 +21.6 +21.2
Ю 1.5
{3.0}
+22.1 +10.2 47 +24 +24 комфорт 1015.6 964.5 +22.1 +21.6
Ю 1.1
{3.1}
+22.5 +8.8 42 +24 +24 комфорт 1015.7 964.6 +23.2 +22.5
Местоположение метеостанции Боз (Андижанская область, Узбекистан): широта 40.68 долгота 71.92 высота над уровнем моря 0 м.
В архиве по умолчанию представлена погода в Бозе за последние 1-2 суток. Обновление информации о фактической погоде в базе происходит ежечасно! Архивные данные за месяц целиком и за предыдущие месяцы Вы можете получить, выбрав интересующий диапазон дат из раскрывающегося списка и нажав кнопку "Ввод!".
*Определитесь, кто Вы:
Внимание! Время в таблицах - местное (без учета летнего времени). Для получения всемирного времени необходимо вычесть поправку, которая равна 5 ч.
Смотрите также архив погоды на ближайших метеорологических станциях:
Партнеры нашего сайта:      
Пояснения к столбцам:
  • Ветер - указаны скорость ветра в м/с - средняя за 10 мин, порывы в срок и между сроками (в фигурных скобках) и направление, откуда дует ветер: С - северный,
  • СВ - северо-восточный, В - восточный, ЮВ - юго-восточный, Ю - южный, ЮЗ - юго-западный, З - западный, СЗ - северо-западный.
  • Видимость - горизонтальная дальность видимости в метрах или километрах. При видимости от 1 до 10 км при отсутствии осадков обычно наблюдается дымка, при ухудшении видимости до 1 км и менее - туман. В сухую погоду видимость может ухудшаться дымом, пылью или мглою.
  • Явления - указаны атмосферные явления, наблюдавшиеся в срок или в последний час перед сроком.
  • Солнечная радиация - мощность потока солнечного излучения на поверхность земли и предметов в Вт/м2.
  • T - Температура воздуха - температура, измеренная на высоте 2 м над землей.
  • Td - Температура точки росы - температура, при понижении до которой содержащийся в воздухе водяной пар достигнет насыщения.
  • f - Относительная влажность воздуха - влажноcть воздуха, измеренная на высоте 2 м над землей.
  • Te - Эффективная температура - температура, которую ощущает одетый по сезону человек в тени. Характеристика душности погоды. При расчете учитывается влияние влажности воздуха и скорости ветра на теплоощущения человека.
  • Tes - Эффективная температура на солнце - температура, которую ощущает человек, с поправкой на солнечный нагрев. Характеристика знойности погоды. Зависит от высоты солнца над горизонтом, облачности и скорости ветра. Ночью, в пасмурную погоду, а также при ветре 12 м/с и более поправка равна нулю.
  • P - Атмосферное давление - приведенное к уровню моря атмосферное давление.
  • Po - Атмосферное давление - измеренное на уровне метеостанции атмосферное давление.
  • Tmin - Минимальная температура - минимум температуры воздуха на высоте 2 м над землей.
  • Tmax - Максимальная температура - максимум температуры воздуха на высоте 2 м над землей.
  • R - Количество осадков - Количество выпавших осадков за период времени, мм. При наведении курсора мыши на число - период времени, за который выпало указанное количество осадков.